sat.trackr.live / text

‹ back to catalog

STARLINK-5174

NORAD 54067 · 2022-136S

PAYLOAD ACTIVE UNKNOWN

§ Identity

Operator
Country
US
Launch date
2022-10-20
Launch site
AFETR
Launch vehicle
Mass (kg)
RCS (m²)

Purposes: comms

External: N2YO · Heavens-Above · Gunter

§ Orbital elements

Epoch: 2026-05-24T23:23:53.424960Z

Period
95.44 min
Inclination
53.2130°
Eccentricity
0.0001277
Mean motion
15.08837133 rev/d
Perigee alt
538.9 km
Apogee alt
540.6 km
Semi-major
6,917.9 km
B*
3.3263e-5
RAAN
1.4341°
Arg perigee
73.5551°
Mean anomaly
286.5581°
Rev number
19,836

§ Raw data

STARLINK-51741 54067U 22136S   26144.97492390  .00000242  00000+0  33263-4 0  99942 54067  53.2130   1.4341 0001277  73.5551 286.5581 15.08837133198365

JSON: /api/v1/satellites/54067 · /tle

For live sub-satellite position, see the globe view (requires WebGL).

§ Visibility from observer

Set your observer location to see the next 7 days of passes ≥ 10°. The values pass through the URL so the page stays shareable.

No JS? Fill the form by hand. The geolocation button needs JavaScript.